Dewpoint
-1 -1 -2 -6 -6 -6 -7 -6 -7 -9 -8 -5 -5 -5 -6 -4 1 4 5 6 7 7 7 8 9 7 9 9 9 9 10 9 9 9 8 9 8 7 5 5 4 6 3 2
1 1 -4 -5 -6 -6 -6 -5 -6 -8 -6 -6 -8 -6 -6 -4 -0 3 4 5 7 7 8 8 9 9 8 8 9 9 9 9 9 8 8 8 7 7 6 5 4 6 5 3
-1 -4 -4 -3 -3 -3 -4 -5 -5 -5 -5 -6 -5 -4 -5 -5 -1 2 4 4 6 7 7 8 8 9 9 9 9 9 9 9 9 9 9 9 8 7 7 5 7 5 7 5
-4 -7 -3 -2 -3 -4 -3 -5 -4 -4 -3 -6 -5 -2 -5 -5 -5 -2 0 5 5 6 7 7 8 9 9 9 9 8 9 9 9 9 9 8 8 8 6 5 5 7 8 6
-1 -4 -3 -2 -3 -6 -4 -6 -3 -4 -3 -4 -4 -2 -6 -6 -4 -6 -7 -1 4 5 7 7 8 8 9 8 9 9 8 9 9 9 9 8 8 7 6 7 6 8 6 7
-4 -4 -5 -5 -5 -5 -5 -3 -3 -2 -3 1 -4 -4 -5 -7 -4 -6 -8 -6 -0 4 6 7 8 8 8 8 9 9 8 8 9 9 9 7 7 7 6 6 5 5 6 7
-2 -3 -2 -3 -5 -4 -4 -2 0 1 1 1 -4 -1 -4 -4 -5 -6 -6 -7 -1 3 5 7 8 8 8 9 8 8 8 8 8 9 9 8 8 5 7 7 6 5 6 5
-5 -1 -2 -2 -2 -2 -2 -2 -1 1 2 -1 -0 1 -2 -5 -5 -5 -6 -5 -2 2 5 6 7 8 8 8 8 4 8 8 8 9 9 9 8 8 8 7 7 5 4 3
-5 -5 -4 -2 -2 -4 -1 1 -3 -1 2 3 0 -1 -3 -5 -5 -5 -5 -4 -4 -1 3 5 6 7 8 8 6 5 2 7 8 8 9 9 9 9 9 7 6 5 3 4
-3 -1 -4 -2 -2 -2 -1 -3 2 1 3 3 -1 0 -1 -3 -4 -6 -6 -5 -5 -4 -1 2 5 7 8 8 8 6 5 6 7 8 9 9 9 9 9 8 7 5 5 4
-4 -1 -0 -2 -0 -0 0 1 -1 -1 0 2 2 0 -3 -3 -1 -1 -3 -5 -4 -3 -1 2 4 6 7 8 9 6 6 8 7 8 8 9 8 9 9 8 8 8 6 5
-4 -1 1 -2 -2 -3 -3 -1 -1 1 2 1 4 0 -3 -2 -3 -4 -3 -3 -3 -2 -2 0 5 6 7 8 8 8 7 7 7 7 8 7 8 8 8 7 5 5 6 7
3 -1 -1 -2 -2 -2 0 0 0 1 1 2 5 1 -4 -4 -4 -4 -3 -3 -3 -4 -3 -2 3 6 7 7 8 8 8 5 7 8 7 5 5 6 4 2 3 5 6 7
2 2 0 -3 -2 -1 3 1 -0 1 4 2 1 -0 -1 -3 -3 -4 -4 -3 -3 -3 -3 -3 -2 3 6 7 7 7 8 6 7 8 8 7 4 1 -1 -1 2 2 1 3
2 3 0 -1 -1 -2 -0 0 -1 0 0 2 -0 -1 -3 -5 -6 -4 -3 -3 -3 -3 -3 -3 -2 -2 1 5 7 7 8 8 6 8 8 6 5 5 4 3 2 1 2 1
-0 -1 -1 -1 -3 -0 1 -2 -3 -2 -3 -2 -2 -1 -5 -7 -7 -6 -6 -5 -3 -2 -3 -3 -3 -2 -2 -1 4 7 7 6 6 5 4 6 7 6 5 6 6 6 4 3
-1 3 0 -2 0 -2 -2 -2 -2 -3 -4 -5 -4 -7 -8 -7 -6 -5 -5 -2 0 0 -0 -2 -2 -1 -0 -2 -3 -3 -0 7 6 3 5 6 6 6 6 6 6 7 8 8
-1 3 3 1 3 1 -7 -4 -4 -3 -5 -7 -7 -7 -4 -2 -0 1 1 1 3 3 4 3 2 1 -1 -1 -2 -3 3 6 6 3 5 6 5 5 7 7 7 8 8 8
-2 1 3 3 2 -3 -4 -8 -7 -5 -9 -5 -3 -3 -3 -2 -1 -1 2 2 3 4 4 4 3 3 2 -0 -1 -4 1 4 6 4 1 2 5 7 8 7 8 9 9 9
-1 -1 2 3 1 1 -4 -2 -2 -2 -3 -2 -2 -1 -1 -0 1 -1 1 2 4 4 4 4 4 4 2 -1 -1 -1 -4 1 4 3 6 6 6 8 8 9 9 7 8 9
2 2 3 2 4 -0 -4 -5 -3 3 2 -1 -1 -1 -1 1 1 2 2 3 3 4 4 4 5 5 5 3 2 -2 -3 -2 4 5 4 6 8 9 8 7 8 8 9 9
2 2 3 1 3 4 -4 -2 -0 3 1 -0 -1 -1 0 2 2 3 3 3 4 4 3 4 5 6 6 6 6 4 4 5 5 3 4 5 6 7 7 8 9 9 9 9
2 -2 -0 -1 -0 -1 -0 1 0 2 2 2 3 3 3 3 3 3 4 4 3 3 3 3 4 4 5 6 6 7 4 5 6 6 8 8 8 9 9 9 9 8 8 7
-3 -3 0 -0 -2 -3 -4 -0 2 2 2 2 2 2 4 4 4 3 3 3 2 2 2 2 3 3 4 5 6 6 6 7 8 8 9 9 9 8 8 8 7 7 6 5
-4 -3 -1 -2 -4 -5 -3 2 2 2 2 1 1 0 1 1 1 1 1 1 2 2 2 2 1 2 2 2 4 5 6 6 7 8 7 7 7 7 5 5 4 3 2 2
-5 -3 -1 -1 1 1 0 1 1 1 1 0 -0 -1 -1 -1 -1 -1 -1 -1 1 1 2 1 -2 1 1 0 2 4 4 4 5 5 4 3 3 3 3 2 1 -0 -0 -0
Wind_Speed
22 14 20 25 22 20 11 12 14 7 4 7 13 15 12 6 13 15 15 17 18 17 13 13 11 11 15 15 18 22 24 24 23 26 38 36 34 48 49 44 44 29 35 34
10 20 21 17 18 20 18 15 13 6 6 10 14 14 14 4 9 13 15 18 19 18 17 16 14 14 16 17 19 21 25 27 28 30 34 36 37 46 48 47 48 32 33 33
21 9 18 14 16 19 21 19 14 12 3 11 10 15 17 12 9 9 15 16 18 22 23 20 19 17 16 19 20 23 28 29 30 33 39 39 37 44 44 54 41 37 32 32
16 22 5 19 22 19 19 17 16 12 9 11 7 14 15 11 15 12 14 17 18 22 24 22 22 20 19 19 20 22 28 31 30 31 39 42 44 43 44 49 48 32 30 34
12 12 20 17 18 18 16 7 13 14 13 13 14 9 13 9 14 15 14 16 18 20 25 26 25 22 20 20 22 23 27 29 32 37 40 38 42 44 43 46 48 36 35 36
15 5 13 19 13 12 4 8 7 6 7 12 15 11 11 12 13 10 9 10 12 16 23 25 23 22 21 20 21 23 25 30 34 39 41 40 44 44 44 47 49 43 38 39
13 14 5 10 16 13 15 12 7 9 9 10 5 10 16 6 10 11 9 9 7 12 19 24 27 27 25 25 25 25 27 29 34 39 42 44 42 48 44 47 51 49 46 43
14 9 15 13 14 9 21 17 6 6 9 9 8 8 11 7 8 12 11 12 6 12 16 22 28 29 29 29 28 28 28 28 31 37 42 38 40 47 47 43 50 51 51 52
12 13 10 14 9 13 13 19 16 10 2 4 7 5 10 9 8 6 10 7 9 11 15 17 25 31 30 31 33 33 31 30 30 33 37 42 40 41 47 44 48 50 51 50
6 6 9 16 18 17 11 11 8 10 10 13 10 9 6 3 7 8 7 8 6 8 11 16 23 29 30 30 30 33 33 31 31 32 34 36 40 42 41 43 48 55 55 57
8 5 6 10 14 17 14 12 8 6 10 8 8 5 4 6 11 11 11 4 7 11 9 11 19 24 28 28 30 34 34 32 33 34 35 35 39 41 43 47 49 51 56 59
6 3 7 10 4 5 12 17 18 10 11 6 5 6 5 6 8 11 10 14 16 15 13 8 14 19 25 29 30 33 35 36 36 34 35 38 35 37 41 49 50 51 54 50
5 7 9 10 6 5 4 3 4 3 2 10 8 3 2 12 12 14 17 16 17 17 14 8 8 16 21 26 30 33 36 39 37 36 37 37 40 41 44 45 45 45 45 43
10 3 6 10 3 2 7 5 3 5 6 8 10 9 7 12 15 16 19 20 21 20 20 15 11 13 18 23 28 31 34 36 37 36 38 40 43 44 43 42 43 43 43 42
2 3 2 1 1 1 4 7 7 6 6 6 8 9 8 9 12 16 18 22 25 26 23 18 16 15 16 21 25 27 30 33 36 36 37 44 45 45 42 43 42 42 43 44
6 4 4 5 5 6 8 9 9 10 11 11 15 17 12 13 14 16 20 22 23 26 28 24 20 18 18 20 24 24 28 32 33 36 39 37 37 38 41 41 41 39 41 41
4 3 5 9 3 5 8 15 16 13 12 9 11 8 11 12 13 19 24 24 26 30 29 29 28 21 18 18 23 27 28 26 32 34 33 34 34 35 35 34 35 36 36 32
5 4 3 3 3 7 1 3 0 6 9 8 8 8 7 9 12 17 22 20 22 27 31 31 30 27 20 19 18 23 22 26 31 32 31 31 33 33 30 29 29 28 28 28
12 6 3 4 11 9 12 6 8 7 4 0 3 6 10 11 13 10 10 19 25 27 30 33 31 30 30 24 18 21 21 25 28 33 33 31 31 30 29 29 27 24 26 28
13 12 7 5 7 6 4 5 1 1 3 7 7 8 11 14 8 8 21 22 24 27 30 34 32 31 28 30 22 22 23 25 30 33 30 28 29 29 27 25 28 29 25 22
10 11 14 11 7 3 9 6 2 5 4 11 15 15 17 9 10 17 20 25 24 27 31 34 31 28 25 23 23 26 25 27 26 27 29 27 25 27 34 32 27 24 21 22
10 9 8 11 6 6 6 3 4 7 9 16 19 20 20 19 15 15 16 23 26 30 32 32 31 27 21 19 18 19 17 24 27 30 29 30 29 29 28 27 23 20 19 20
7 7 6 7 7 3 3 3 8 10 12 15 17 20 21 17 11 11 16 19 24 30 30 29 26 24 21 14 8 10 18 20 20 21 23 22 22 23 24 22 22 24 20 21
8 9 7 5 8 10 8 2 6 9 9 11 14 15 15 13 14 15 15 18 23 33 38 30 24 19 15 9 6 8 11 14 17 18 22 24 26 24 22 21 18 17 17 20
9 7 10 12 13 12 13 2 8 10 10 12 13 13 12 14 14 16 15 16 19 24 36 26 20 14 10 7 0 7 12 15 20 24 25 25 24 23 22 20 20 18 19 17
12 11 8 8 5 1 6 9 9 13 12 13 14 14 12 12 14 14 12 13 15 12 17 20 16 10 8 5 8 8 8 13 19 23 25 26 27 27 25 25 26 21 18 16
Wind_Direction
199 206 213 216 220 237 271 259 254 234 171 238 239 253 259 240 231 224 220 219 220 219 208 202 196 202 194 198 201 217 214 196 190 181 186 186 183 185 183 179 183 192 197 195
184 224 222 227 223 233 236 245 246 249 258 241 250 250 263 229 229 230 223 221 221 214 205 201 196 199 199 193 200 203 210 205 197 195 189 188 188 185 188 190 194 198 202 198
219 222 229 215 217 223 229 235 245 255 191 244 270 255 249 225 220 231 230 232 220 214 208 202 197 198 198 195 201 199 203 205 206 197 196 187 191 192 192 191 205 207 208 205
232 236 207 210 223 218 230 224 246 248 257 259 205 259 250 240 248 208 232 221 220 212 211 207 200 199 199 197 193 197 200 201 200 203 204 203 201 195 198 196 204 211 213 212
220 227 214 219 224 217 243 218 232 240 245 267 239 257 261 254 253 247 234 216 218 213 209 206 206 201 197 195 194 192 201 204 209 205 203 202 200 201 203 204 207 209 215 220
255 217 228 225 216 217 225 186 195 214 233 243 244 237 263 245 240 256 235 206 211 210 209 208 207 200 198 196 195 193 198 201 206 204 205 204 198 200 202 199 210 217 218 221
224 221 197 231 216 215 219 200 209 217 210 236 215 209 244 264 261 267 260 251 165 202 205 201 201 201 198 198 197 195 196 200 204 208 211 205 209 205 205 210 210 214 216 217
221 215 209 186 207 183 202 192 205 220 218 228 153 223 245 270 295 276 249 265 233 196 202 202 203 203 203 201 205 205 199 198 201 207 208 206 209 210 210 211 214 216 216 219
204 234 178 196 185 198 194 225 234 263 226 257 209 208 265 238 263 235 239 241 231 202 211 212 206 206 204 204 209 212 206 201 202 203 205 210 208 210 214 214 215 218 218 219
229 239 205 196 197 210 218 174 184 214 228 233 233 242 255 210 254 296 250 238 280 280 229 220 210 205 206 207 209 216 210 208 205 205 206 207 209 213 214 215 219 220 223 223
254 260 140 164 202 205 202 211 233 249 235 247 244 211 231 296 9 338 316 300 319 324 296 233 207 207 204 204 206 215 214 208 208 210 209 210 211 213 214 219 223 227 226 226
206 284 183 164 103 338 210 221 220 225 198 230 281 237 112 24 350 342 335 323 318 323 329 277 210 199 199 203 206 211 214 213 214 213 212 215 215 215 217 222 225 227 229 231
357 221 211 225 213 213 208 145 159 195 290 240 231 214 342 312 317 322 319 321 321 328 336 321 246 213 205 206 208 210 215 220 217 214 218 219 220 220 225 228 229 229 230 231
307 206 243 226 223 134 178 152 140 219 214 243 242 275 289 295 301 296 297 309 310 315 313 302 270 242 231 217 215 213 218 219 217 217 218 221 224 230 232 233 232 234 236 235
333 234 241 137 116 253 202 199 189 212 237 233 255 250 262 267 277 298 311 305 307 308 306 304 284 261 244 235 224 219 218 219 218 218 220 228 233 232 231 232 235 235 236 239
344 236 241 257 264 247 259 253 249 242 241 250 250 259 264 289 288 302 307 310 313 304 298 300 303 275 253 249 234 226 223 223 220 220 226 226 227 230 232 233 234 236 240 240
309 231 202 252 307 292 263 237 236 240 238 247 269 293 325 303 300 304 302 303 308 310 306 300 301 302 274 269 268 250 243 223 222 224 223 223 225 226 226 229 230 232 234 235
265 220 216 227 216 238 352 115 207 259 263 273 287 315 327 320 315 303 293 300 321 322 315 305 297 294 285 290 273 265 236 228 225 225 224 223 224 225 221 222 224 224 225 227
221 237 188 220 219 282 289 251 236 228 257 234 22 350 339 329 314 295 3 329 324 321 316 310 299 294 289 282 280 281 246 230 227 229 229 226 224 220 216 217 218 220 221 226
199 225 231 193 236 238 135 132 91 343 236 112 336 322 335 333 322 349 331 328 330 329 324 319 310 299 288 280 279 271 268 242 231 233 227 223 221 219 214 214 213 222 228 234
183 200 217 220 238 253 258 265 357 217 75 349 342 329 329 321 327 320 322 329 331 338 334 328 320 310 296 284 271 269 265 249 238 230 228 221 213 209 213 215 213 218 220 224
180 194 198 224 229 240 221 193 220 11 333 342 330 323 320 319 321 328 332 332 335 343 342 334 327 322 313 295 278 266 254 238 233 230 225 220 219 217 211 210 202 201 209 221
211 215 198 208 213 96 140 30 10 5 351 344 333 325 318 307 315 334 339 343 343 346 342 334 331 324 318 301 298 249 246 243 234 221 208 201 198 192 185 188 191 191 189 212
232 239 237 214 228 245 293 81 17 358 350 334 335 334 343 322 307 310 318 329 341 348 342 329 328 332 336 324 252 213 207 203 200 192 181 174 173 172 176 180 185 193 186 190
242 197 233 249 254 267 264 10 350 344 343 334 325 330 332 332 329 326 326 328 336 352 342 319 324 328 357 10 90 166 173 184 180 168 163 161 162 162 160 154 154 158 155 164
232 245 236 259 76 250 290 324 324 330 334 332 328 325 327 329 331 336 335 338 337 345 340 316 336 336 356 47 100 117 146 171 164 154 147 144 144 142 146 148 143 139 144 144
Height
1463 1461 1454 1450 1454 1454 1450 1453 1451 1446 1452 1456 1453 1449 1445 1447 1451 1452 1452 1455 1458 1461 1463 1464 1464 1464 1467 1470 1472 1474 1477 1481 1485 1489 1493 1498 1502 1509 1516 1522 1529 1534 1540 1543
1459 1452 1445 1450 1451 1456 1455 1456 1452 1448 1455 1457 1446 1445 1439 1440 1443 1445 1447 1449 1452 1456 1458 1460 1461 1463 1463 1467 1469 1472 1475 1480 1484 1488 1493 1498 1502 1508 1514 1521 1526 1532 1536 1540
1447 1440 1444 1449 1453 1456 1451 1454 1453 1454 1453 1452 1449 1445 1436 1433 1439 1441 1442 1443 1445 1449 1452 1455 1456 1459 1461 1464 1466 1470 1473 1476 1482 1487 1492 1497 1502 1508 1514 1518 1522 1527 1533 1537
1444 1439 1444 1447 1447 1448 1449 1447 1453 1453 1457 1451 1442 1447 1426 1427 1427 1432 1434 1437 1439 1442 1446 1450 1451 1455 1458 1461 1464 1466 1471 1474 1478 1483 1488 1493 1496 1501 1506 1514 1520 1525 1529 1533
1437 1439 1439 1443 1441 1442 1444 1444 1450 1449 1451 1450 1446 1450 1427 1421 1425 1421 1422 1428 1432 1436 1440 1443 1446 1450 1454 1458 1461 1463 1467 1471 1474 1479 1483 1488 1493 1499 1505 1511 1516 1521 1525 1529
1433 1437 1438 1436 1438 1441 1442 1448 1449 1449 1447 1456 1442 1443 1425 1415 1417 1415 1416 1420 1426 1431 1435 1439 1444 1448 1451 1454 1458 1460 1463 1467 1470 1474 1479 1483 1488 1495 1501 1506 1510 1515 1519 1524
1434 1434 1435 1436 1436 1439 1441 1447 1449 1451 1450 1450 1427 1439 1423 1412 1413 1414 1415 1416 1422 1426 1429 1433 1437 1441 1445 1448 1452 1456 1457 1461 1465 1470 1474 1479 1484 1489 1495 1499 1504 1509 1513 1517
1436 1439 1432 1430 1429 1432 1435 1433 1434 1445 1441 1430 1433 1438 1418 1409 1411 1413 1413 1418 1420 1423 1425 1427 1430 1435 1439 1441 1445 1448 1452 1457 1459 1463 1468 1475 1480 1484 1489 1492 1497 1501 1505 1509
1431 1428 1421 1425 1426 1428 1431 1436 1429 1434 1439 1436 1421 1421 1414 1409 1409 1410 1411 1413 1415 1418 1422 1423 1425 1428 1432 1436 1438 1442 1447 1451 1456 1457 1461 1467 1472 1476 1480 1486 1489 1493 1497 1500
1422 1426 1419 1421 1425 1426 1424 1419 1437 1434 1443 1443 1421 1421 1417 1410 1408 1406 1406 1410 1411 1413 1416 1417 1419 1421 1425 1430 1434 1437 1442 1447 1451 1454 1457 1460 1463 1469 1475 1479 1479 1482 1486 1490
1422 1422 1423 1421 1421 1418 1424 1422 1421 1416 1420 1427 1427 1418 1406 1408 1414 1415 1410 1410 1411 1413 1413 1414 1413 1415 1420 1425 1428 1430 1435 1441 1445 1448 1452 1455 1456 1460 1465 1468 1471 1474 1479 1481
1422 1423 1421 1415 1417 1413 1409 1414 1416 1422 1425 1424 1428 1417 1407 1414 1416 1415 1413 1414 1413 1412 1412 1412 1410 1411 1413 1417 1421 1424 1427 1431 1435 1441 1445 1447 1452 1455 1457 1457 1460 1465 1469 1474
1428 1419 1423 1420 1419 1418 1417 1420 1418 1421 1424 1422 1433 1421 1411 1413 1413 1414 1412 1411 1410 1408 1408 1409 1410 1409 1409 1411 1413 1417 1418 1421 1427 1432 1435 1438 1441 1444 1445 1448 1452 1456 1460 1465
1431 1421 1417 1415 1413 1413 1425 1425 1425 1422 1426 1421 1421 1419 1419 1416 1413 1413 1412 1409 1407 1406 1405 1405 1406 1407 1408 1407 1407 1408 1411 1414 1417 1422 1425 1427 1429 1432 1436 1442 1445 1448 1451 1454
1433 1432 1424 1421 1423 1423 1423 1423 1423 1425 1425 1430 1421 1422 1417 1416 1414 1411 1411 1409 1406 1403 1403 1401 1400 1401 1401 1403 1402 1402 1404 1406 1408 1411 1416 1415 1419 1423 1428 1432 1435 1439 1441 1445
1434 1428 1426 1427 1424 1425 1425 1421 1419 1419 1420 1420 1418 1415 1411 1413 1413 1413 1412 1410 1408 1404 1401 1399 1397 1395 1393 1393 1395 1396 1396 1396 1399 1401 1402 1408 1411 1413 1416 1420 1425 1430 1432 1435
1439 1432 1429 1426 1427 1425 1426 1417 1414 1412 1410 1412 1414 1409 1411 1414 1414 1414 1410 1409 1408 1403 1400 1396 1393 1391 1389 1388 1388 1389 1388 1391 1390 1391 1395 1398 1402 1403 1406 1411 1415 1418 1423 1428
1440 1435 1435 1428 1436 1433 1406 1411 1412 1413 1411 1410 1411 1413 1414 1414 1414 1413 1409 1408 1406 1403 1398 1393 1389 1385 1385 1384 1381 1381 1383 1383 1384 1384 1387 1390 1393 1395 1399 1403 1406 1411 1415 1417
1441 1437 1436 1433 1424 1412 1413 1407 1409 1410 1409 1412 1412 1413 1414 1413 1412 1405 1407 1409 1406 1401 1396 1390 1385 1380 1375 1375 1375 1372 1374 1376 1377 1377 1378 1380 1385 1388 1392 1394 1398 1403 1407 1409
1438 1438 1435 1435 1430 1426 1405 1410 1411 1409 1413 1412 1415 1414 1413 1412 1408 1404 1407 1405 1402 1398 1393 1385 1379 1373 1370 1367 1368 1365 1364 1366 1368 1368 1372 1373 1376 1380 1386 1389 1389 1392 1398 1402
1434 1435 1432 1429 1426 1415 1408 1409 1410 1413 1416 1414 1414 1413 1411 1410 1410 1409 1405 1402 1400 1394 1387 1381 1374 1368 1364 1361 1359 1358 1357 1357 1360 1362 1363 1366 1369 1372 1374 1378 1382 1386 1391 1395
1425 1425 1425 1423 1427 1426 1409 1411 1412 1414 1414 1415 1412 1411 1409 1407 1407 1406 1404 1400 1395 1389 1382 1379 1373 1365 1358 1352 1350 1350 1350 1348 1349 1350 1352 1355 1358 1365 1368 1371 1375 1381 1386 1393
1415 1409 1408 1410 1409 1410 1412 1412 1415 1416 1415 1414 1414 1411 1407 1404 1403 1403 1399 1395 1391 1386 1381 1378 1372 1364 1354 1347 1345 1343 1342 1344 1345 1346 1347 1350 1354 1361 1365 1369 1373 1375 1373 1388
1406 1407 1408 1410 1407 1408 1410 1413 1418 1419 1418 1417 1414 1411 1407 1405 1402 1399 1395 1390 1384 1380 1377 1375 1370 1363 1354 1347 1342 1339 1339 1344 1345 1343 1345 1347 1352 1358 1363 1367 1372 1378 1376 1381
1404 1404 1407 1406 1407 1408 1410 1415 1417 1418 1417 1416 1414 1411 1407 1403 1401 1397 1393 1388 1380 1376 1378 1376 1372 1364 1354 1350 1345 1340 1340 1343 1344 1344 1346 1347 1349 1354 1362 1366 1370 1375 1379 1385
1403 1404 1404 1403 1410 1413 1413 1415 1414 1414 1412 1412 1410 1407 1405 1401 1399 1395 1391 1386 1379 1373 1374 1377 1373 1365 1358 1354 1346 1342 1343 1347 1346 1346 1348 1349 1351 1352 1363 1366 1370 1376 1383 1385